Location: Capo sa Sturraggia
(39.9833°N, 8.4000°E)
Time: 10:24:37
(UTC+00:00)

Daily predictions for brighter satellites

Satellite Brightness Start Highest point End
(mag) Time Altitude Azimuth Time Altitude Azimuth Time Altitude Azimuth
MetOp-A 3.8 19:23:44 10° SSE 19:28:11 84° ENE 19:33:05 10° NNW
OBJECT-B 3.1 19:28:23 10° SSW 19:30:42 21° W 19:33:03 10° NW
Cosmos 1025 Rocket 3.1 19:27:19 10° S 19:31:36 84° W 19:35:55 10° N
GEOS 3 Rocket 4.5 19:29:01 10° ESE 19:33:39 37° NE 19:38:21 10° NNW
Resurs 1-3 3.7 19:29:19 10° SSE 19:33:41 87° WSW 19:38:06 10° NNW
Lacrosse 5 2.2 19:29:15 10° NW 19:34:20 67° SW 19:39:23 10° SSE
SPOT 1/Viking Rocket 4.0 19:32:13 10° SE 19:37:04 44° ENE 19:41:57 10° N
Delta 2 Rocket 3.4 19:34:23 10° WSW 19:37:37 39° S 19:40:45 10° ESE
Cosmos 1656 3.9 19:37:47 10° NNW 19:43:12 58° ENE 19:48:39 10° SE
Tiangong 3.0 19:41:36 10° W 19:44:01 20° SSW 19:46:26 10° SSE
Cosmos 1452 Rocket 3.5 19:39:28 10° S 19:44:41 70° ESE 19:49:55 10° NNE
ATLAS 5 CENTAUR R/B 3.0 19:36:09 10° NW 19:47:53 88° WSW 19:51:22 11° SE
Cosmos 1110 Rocket 4.3 19:43:18 10° S 19:48:17 46° ESE 19:53:20 10° NNE
USA 186 4.3 19:46:03 10° SW 19:48:18 19° W 19:50:39 10° NW
X-37B 1.6 19:48:38 10° WNW 19:51:15 36° NNE 19:53:53 10° E
SL-8 R/B 4.1 19:52:05 10° NW 19:56:50 58° NNE 20:01:22 11° ESE
Cosmos 2228 4.1 19:56:15 10° NNE 19:59:54 27° ENE 20:02:34 15° SE
Cosmos 967 Rocket 4.5 19:55:44 10° SSW 20:02:09 70° ESE 20:08:34 10° NE
Cosmos 1455 Rocket 4.4 19:58:08 10° NNW 20:02:09 38° W 20:06:09 10° SSW
H-2A R/B 4.0 19:58:53 10° SSW 20:02:15 30° W 20:05:39 10° NW
Cosmos 1697 Rocket 3.4 19:58:35 10° N 20:03:53 40° ENE 20:08:06 15° SE
Cosmos 1980 Rocket 3.8 19:59:50 10° N 20:04:13 22° NE 20:08:21 11° ESE
Lacrosse 5 rocket 3.9 20:06:12 10° W 20:07:35 12° WSW 20:09:01 10° SW
ATLAS 5 CENTAUR R/B 3.1 20:09:31 13° E 20:09:31 13° E 20:10:47 10° ENE
Resurs 01 Rocket 2.0 20:10:35 10° S 20:14:59 65° WSW 20:19:26 10° NNW
COSMOS 2406 3.3 20:12:42 10° S 20:18:18 56° ESE 20:23:56 10° NNE
Cosmos 1833 Rocket 2.9 20:18:21 10° SSW 20:23:57 76° WNW 20:29:36 10° NNE
Cosmos 2184 Rocket 4.0 20:19:57 10° N 20:26:10 74° E 20:31:13 16° SSE
H-2A R/B 3.6 20:23:45 10° N 20:27:54 38° WNW 20:32:03 10° SW
Cosmos 1536 Rocket 4.1 20:25:26 10° SSW 20:29:42 59° W 20:34:00 10° N
Cosmos 1703 3.4 20:27:03 10° SSW 20:30:51 71° W 20:34:43 10° N
CARTOSAT-1 3.5 20:29:15 20° SSE 20:32:15 89° WSW 20:36:35 10° NNW
USA 245 3.1 20:32:00 25° SSE 20:34:12 72° ENE 20:37:32 10° N
Ariane Rocket 3.4 20:31:49 13° S 20:36:15 62° WSW 20:41:19 10° NNW
Cosmos 1741 Rocket 4.2 20:31:00 10° NNW 20:36:19 74° WSW 20:40:03 20° S
Cosmos 1606 Rocket 3.9 20:33:48 10° N 20:37:59 47° E 20:39:49 29° SE
ASTRO E2 4.2 20:37:18 10° SW 20:39:32 20° S 20:39:32 20° S
ARIANE 5 R/B 3.8 20:44:14 24° ESE 20:45:48 30° ENE 20:49:38 10° N
Terra 2.4 20:44:04 27° SE 20:46:09 43° ENE 20:50:39 10° N
CZ-4B R/B 3.7 20:45:14 10° NNW 20:47:27 20° WNW 20:49:40 10° WSW
SPOT 3 Rocket 3.6 20:44:19 21° S 20:47:50 78° WSW 20:53:04 10° NNW
SPOT 5 2.6 20:46:57 31° SSE 20:48:54 68° ENE 20:53:12 10° N
ATLAS 2AS CENTAUR R/B 4.2 20:45:56 10° NW 20:51:26 26° WSW 20:56:43 10° SSW
RESURS DK-1 3.5 20:51:00 10° NW 20:54:47 36° WSW 20:56:54 21° SSW
Cosmos 1726 Rocket 3.6 20:55:37 10° N 20:59:55 63° E 21:01:15 41° SE
Meteor 1-11 4.3 20:58:42 30° SSE 21:01:18 56° E 21:06:45 10° NNE
Cosmos 2082 Rocket 2.2 20:56:23 10° SSW 21:02:06 90° SSE 21:07:50 10° NNE
Helios 1A Rocket 2.8 21:04:55 42° S 21:06:16 84° WSW 21:10:23 10° NNW
Cosmos 2327 Rocket 4.4 21:00:04 10° N 21:06:23 89° ENE 21:09:49 29° S
Spot 2 Rocket 3.5 21:04:02 31° S 21:06:34 79° WSW 21:11:42 10° NNW
Cosmos 1328 4.1 21:05:03 26° SSW 21:07:09 65° W 21:11:07 10° N
TIMED 4.4 21:07:04 34° S 21:08:55 80° ESE 21:13:16 10° NNE
ASTEX 1 4.0 21:06:06 10° NNE 21:10:46 38° E 21:11:40 35° ESE
Nadezhda 1 Rocket 4.3 21:06:41 12° SSW 21:12:20 61° W 21:18:21 10° N
Cosmos 2084 Rocket 3.3 21:09:08 10° NW 21:13:05 74° SW 21:13:53 54° S
Cosmos 1932 4.4 21:09:45 10° SSW 21:15:57 88° ESE 21:22:17 10° NNE
Cosmos 2181 Rocket 4.2 21:17:08 36° SE 21:19:17 51° E 21:25:18 10° NNE
Cosmos 962 Rocket 4.5 21:13:54 10° N 21:20:12 78° E 21:22:57 36° SSE
ERS-1 Rocket 3.3 21:22:07 34° SSW 21:24:11 61° W 21:29:12 10° NNW
Cosmos 1892 2.4 21:26:27 79° SSE 21:26:38 86° E 21:30:25 10° N
X-37B 2.3 21:24:05 10° WNW 21:25:27 24° W 21:25:27 24° W
Cosmos 1892 Rocket 4.5 21:38:01 28° SW 21:39:54 44° W 21:44:06 10° N
Cosmos 968 Rocket 3.8 21:40:03 10° NNW 21:45:09 56° WSW 21:46:30 43° SSW
Cosmos 1697 Rocket 4.2 21:42:58 10° NW 21:47:36 27° WSW 21:49:50 21° SW
Cosmos 1980 Rocket 2.5 21:43:01 10° NNW 21:48:35 56° WSW 21:50:07 42° SSW
Cosmos 1408 3.7 21:48:44 33° W 21:49:02 34° WNW 21:52:12 10° NNW
Cosmos 1626 Rocket 3.4 21:50:06 74° E 21:50:06 74° E 21:54:26 10° N
SL-16 R/B 3.0 21:46:05 10° N 21:51:26 40° ENE 21:52:57 34° E
Cosmos 2058 Rocket 3.4 21:48:23 10° NNW 21:52:45 57° W 21:53:20 52° SW
ATLAS 5 CENTAUR R/B 2.5 21:50:51 22° WSW 21:52:48 39° NW 21:56:36 10° NNE
USA 267 3.1 21:49:21 10° NE 21:55:53 68° SE 21:59:31 28° SSW
SL-8 Rocket 4.0 21:49:53 10° N 21:56:07 79° W 21:58:01 47° S
Cosmos 2369 4.5 21:51:36 10° NW 21:56:58 42° WSW 21:58:31 35° SW
In-Cosmos 22 Rocket 4.4 21:59:05 40° SW 22:01:00 65° W 22:06:25 10° N
SL-4 R/B 4.0 22:04:44 17° NE 22:04:44 17° NE 22:05:41 10° NE
SJ 16-02 2.6 21:59:34 10° N 22:03:30 30° ENE 22:03:35 30° ENE
Cosmos 1825 2.9 22:08:00 49° WNW 22:08:00 49° WNW 22:11:20 10° N
Cosmos 1867 4.2 22:09:45 10° NW 22:14:49 40° WSW 22:15:18 40° SW
Cosmos 2366 rocket 4.2 22:10:12 10° NNW 22:16:29 66° W 22:18:15 47° SSW
Cosmos 1869 4.0 22:15:08 10° NNW 22:18:25 50° WNW 22:18:25 50° WNW
ARIANE 5 R/B 4.3 22:21:47 24° WSW 22:22:13 24° W 22:25:49 10° NW
Cosmos 2218 Rocket 4.4 22:16:40 10° NNW 22:22:56 58° W 22:24:43 44° SW
Terra 3.8 22:22:57 17° WSW 22:24:04 19° W 22:27:24 10° NW
Cosmos 2322 Rocket 2.5 22:19:58 10° NNW 22:25:33 54° ENE 22:26:28 49° E
GP-B 4.3 22:21:52 10° NNW 22:25:49 33° W 22:26:26 31° W
Meteor 2-20 Rocket 4.3 22:33:21 64° SE 22:34:04 70° E 22:40:09 10° NNE
Cosmos 1633 4.2 22:39:00 30° NW 22:39:00 30° NW 22:41:12 10° N
Cosmos 1758 Rocket 4.0 22:42:24 56° NW 22:42:24 56° NW 22:46:21 10° N
Cosmos 2333 Rocket 3.5 22:41:15 10° N 22:46:23 32° ENE 22:48:05 27° E
ADEOS Rocket 3.5 22:53:13 54° SSE 22:55:09 82° ENE 23:02:55 10° NNW
Cosmos 1606 3.9 22:51:45 10° N 22:54:21 41° NNW 22:54:21 41° NNW
Cosmos-2242 3.8 22:51:50 10° NNW 22:55:10 45° NW 22:55:10 45° NW
Cosmos 1340 Rocket 4.0 22:58:42 39° NNE 22:58:42 39° NNE 23:01:19 10° NNE
ISS -0.6 23:00:48 11° NE 23:00:48 11° NE 23:00:55 10° NE
Gbstr 26 Del rocket 4.0 22:59:00 40° WNW 22:59:48 46° NNW 23:04:31 10° NE
Cosmos 2360 Rocket 2.3 22:54:23 10° NNW 23:00:03 66° ENE 23:00:31 63° E
Cosmos 1821 Rocket 4.3 23:04:39 10° NNW 23:10:35 50° W 23:11:22 47° WSW
NOSS 3-2 (A) 4.1 23:13:40 35° E 23:13:40 35° E 23:18:06 10° NE
Cosmos 44 3.6 23:14:09 57° NNW 23:14:09 57° NNW 23:18:13 10° NNE
Cosmos 1833 4.1 23:14:26 73° W 23:14:46 76° WNW 23:20:23 10° NNE
Meteor 2-11 Rocket 4.3 23:10:42 10° N 23:16:50 76° E 23:17:23 70° SE
Cosmos 972 Rocket 4.1 23:13:05 10° NNW 23:18:28 79° ENE 23:18:41 77° ESE
ALOS 2 3.5 23:21:36 42° WNW 23:21:36 42° WNW 23:24:55 10° NNW
CENTAUR R/B 3.0 23:22:31 41° E 23:22:31 41° E 23:28:06 10° NE
ERS-2 3.8 23:20:57 10° N 23:22:56 31° N 23:22:56 31° N
Cosmos 1605 Rocket 4.1 23:21:10 10° N 23:27:33 68° E 23:28:27 60° SE
Cosmos 2297 Rocket 4.2 23:29:19 15° E 23:29:19 15° E 23:32:08 10° ENE
Cosmos 2058 4.4 23:29:58 30° WNW 23:29:58 30° WNW 23:33:04 10° NNW
Cosmos 2151 4.3 23:31:03 33° ENE 23:31:03 33° ENE 23:34:00 10° NNE
Cosmos 1953 Rocket 4.5 23:33:03 43° NW 23:33:03 43° NW 23:36:39 10° N
COSMOS 2428 3.9 23:27:34 10° N 23:32:51 37° ENE 23:34:37 30° E
SL-16 R/B 3.5 23:30:34 10° NW 23:34:48 27° W 23:34:48 27° W
Cosmos 2219 Rocket 2.6 23:30:15 10° NNW 23:35:50 55° ENE 23:36:40 50° E
USA 267 4.4 23:32:38 10° NE 23:38:37 40° NNW 23:44:36 10° W
SJ 16-02 3.4 23:38:24 10° NW 23:40:31 20° WNW 23:40:31 20° WNW
SL-4 R/B 4.4 23:40:05 12° NW 23:42:06 18° NNW 23:44:42 10° NNE
Cosmos 2322 3.9 23:39:22 10° NNW 23:45:00 61° ENE 23:45:45 55° E
Cosmos 1898 Rocket 4.3 23:41:24 10° N 23:46:18 41° ENE 23:47:02 39° E
Cosmos 2221 3.5 23:49:03 10° NNW 23:52:14 42° NW 23:52:14 42° NW
